Theta_e
302 298 295 298 300 301 300 298 297 300 300 297 298 299 302 300 299 300 299 299 299 298 298 300 300 298 298 299 301 302 301 300 299 298 295 295 294 294 294 295 296 296 297 298
297 294 301 303 301 299 298 296 296 299 300 296 297 297 301 301 299 300 300 299 298 297 297 299 299 297 296 297 298 298 298 298 296 296 295 294 293 293 293 294 293 293 293 294
297 300 301 298 296 295 296 294 295 295 298 297 296 295 298 302 299 297 298 299 298 297 297 297 299 297 297 297 298 298 297 297 297 296 295 294 295 294 293 292 292 292 292 293
297 302 297 296 295 296 292 299 296 295 293 290 297 288 298 301 293 294 294 295 296 296 297 297 298 296 295 295 298 297 297 297 298 299 297 295 292 290 291 292 292 292 292 291
295 294 294 294 296 297 294 297 295 295 293 293 294 290 295 296 292 292 294 294 295 295 295 295 295 294 294 295 294 294 293 294 295 295 293 292 291 292 292 292 291 291 291 291
296 298 298 297 297 297 297 295 293 293 293 286 292 292 293 295 294 295 293 294 294 294 294 293 292 292 291 292 292 293 291 291 294 293 293 292 291 291 291 291 290 290 291 291
295 295 298 298 294 295 295 292 286 284 283 284 290 291 294 298 295 297 293 293 294 293 292 290 289 289 290 290 290 290 290 289 291 292 292 292 292 292 291 290 290 290 289 289
292 290 296 297 296 295 292 293 288 282 283 287 286 285 291 292 298 297 296 295 294 292 291 290 289 289 289 289 289 290 289 289 290 291 291 291 291 291 290 290 289 289 289 289
293 293 296 296 298 299 293 289 295 286 282 283 288 291 293 292 291 294 294 294 292 291 290 289 289 289 288 289 289 289 289 289 290 290 290 290 290 290 289 290 290 289 289 288
298 290 292 293 294 296 294 297 286 288 281 281 288 289 290 288 289 291 292 292 292 292 290 289 288 288 288 289 289 289 289 289 289 289 289 289 289 289 289 289 288 288 287 286
299 294 288 291 290 291 290 289 290 291 289 285 284 288 297 296 293 291 292 293 293 292 291 290 289 288 288 289 289 289 289 288 288 289 289 289 288 288 288 287 286 285 285 283
298 294 290 290 294 294 295 292 292 287 285 287 287 288 293 296 297 295 294 293 294 293 292 290 289 288 288 287 288 288 288 288 288 289 289 288 287 287 286 284 284 283 282 282
296 289 286 287 290 290 289 291 293 292 290 286 285 288 293 293 294 296 294 294 294 293 292 290 289 287 287 287 288 288 288 288 288 288 287 286 286 285 283 282 281 281 280 280
297 290 289 288 291 293 287 290 291 290 285 287 288 291 291 292 293 294 295 295 294 293 291 290 289 288 287 287 287 287 287 288 287 287 286 285 283 283 281 280 279 279 278 277
295 285 288 292 294 291 291 291 290 287 289 286 290 291 296 295 295 295 295 295 293 292 291 290 288 288 287 287 287 287 287 286 286 285 284 283 282 280 279 278 277 277 276 275
293 285 288 286 291 291 287 289 291 290 290 290 291 291 298 295 296 294 293 293 292 292 291 289 289 287 286 285 286 285 285 285 285 283 282 281 280 278 277 276 275 275 274 274
287 285 284 283 289 285 282 287 289 291 293 292 286 292 290 290 291 293 291 291 291 291 290 289 288 287 286 285 285 284 284 283 282 281 280 278 277 276 275 274 273 273 272 272
285 285 286 284 281 275 288 284 286 291 293 293 292 292 291 292 294 294 295 292 291 291 290 289 289 288 286 285 284 284 282 281 280 279 277 276 275 274 273 272 272 272 272 271
284 286 280 278 279 284 287 285 285 287 288 293 290 292 291 287 286 289 291 293 294 293 293 292 291 288 285 284 284 281 279 279 278 277 276 275 274 272 272 270 271 270 270 270
282 283 283 278 278 278 284 281 284 287 282 290 293 292 288 284 284 290 286 288 289 290 289 288 288 286 284 283 281 279 278 277 277 276 276 274 272 270 269 270 269 270 269 269
278 280 279 280 280 283 287 281 282 279 284 285 290 290 285 285 289 285 286 285 287 287 286 287 286 283 283 280 279 278 277 276 277 276 274 272 271 269 269 268 269 267 267 268
281 279 279 282 279 277 281 279 281 285 281 283 286 286 285 285 282 283 284 284 283 283 284 283 282 280 279 279 279 277 276 277 275 273 272 270 268 269 268 266 266 266 266 265
280 285 284 284 284 281 283 282 285 284 284 282 283 284 286 283 282 282 282 282 282 282 281 281 280 277 277 278 279 277 277 274 272 270 268 267 266 267 267 266 266 266 267 266
280 280 281 282 281 280 281 283 283 284 284 284 284 283 284 282 281 281 281 280 280 280 279 279 278 277 275 276 277 278 274 273 269 268 266 266 265 266 265 267 268 267 268 267
281 280 279 278 278 280 282 283 285 284 283 282 282 283 283 283 281 281 281 280 281 280 279 278 278 277 276 275 275 274 272 269 268 268 267 267 267 266 268 267 268 268 268 268
280 278 278 279 282 284 285 287 286 283 282 282 282 280 281 282 282 281 280 280 280 279 278 277 277 277 277 274 273 271 270 268 268 268 267 268 269 268 267 267 267 270 270 271
Wind_Speed
10 10 16 19 17 18 14 12 14 10 2 7 15 16 14 14 12 13 11 10 8 6 4 4 7 6 6 6 7 8 9 8 7 7 8 8 9 8 9 9 13 13 11 12
6 17 18 14 10 16 15 16 16 14 5 5 15 19 16 13 16 15 13 11 10 8 8 6 8 6 7 7 8 8 8 8 7 6 6 6 8 9 10 9 12 14 14 13
19 9 8 13 9 11 15 18 15 16 2 11 14 22 23 22 10 7 9 9 9 11 10 8 8 8 8 7 6 7 8 9 8 10 9 10 10 9 9 9 9 11 14 13
17 18 7 11 15 13 16 14 15 14 8 11 6 14 14 10 13 15 13 12 13 12 11 10 11 10 9 8 7 10 11 11 9 10 10 12 10 11 9 9 9 9 13 14
5 8 13 17 17 13 8 1 8 11 12 15 17 13 4 2 13 18 17 16 15 14 14 15 12 11 10 9 10 11 12 11 10 11 12 10 12 9 8 8 11 11 11 12
15 3 7 9 2 9 11 7 4 3 8 14 16 16 11 13 13 16 17 18 17 16 16 15 13 12 11 10 10 10 13 13 10 12 12 13 13 12 9 9 8 7 7 7
18 19 7 6 6 2 12 8 4 5 6 9 1 14 15 5 5 13 21 21 20 18 16 15 15 14 13 13 12 12 14 14 14 13 13 12 12 12 11 9 8 8 7 7
11 8 23 17 25 11 19 18 8 7 7 4 2 10 7 3 4 6 18 19 19 19 16 15 14 13 13 13 13 13 13 13 13 12 14 11 11 7 8 9 7 7 6 6
8 7 2 3 12 18 10 16 6 3 2 4 8 12 4 6 6 10 18 20 20 20 19 18 16 14 14 13 13 13 14 13 13 12 11 11 10 10 9 9 8 7 7 5
2 7 2 4 2 8 8 8 5 6 6 8 8 12 11 11 14 16 21 23 21 21 20 18 17 15 13 13 12 13 13 14 13 12 11 9 9 9 9 8 9 8 7 7
8 6 5 6 11 16 8 10 9 5 8 4 5 7 6 12 19 21 20 21 22 22 20 18 17 16 15 14 13 13 13 13 12 10 10 10 9 8 8 8 8 6 7 8
12 3 8 13 4 6 15 10 18 7 7 7 6 12 3 3 13 17 19 20 20 21 20 19 17 17 15 14 15 14 13 12 11 11 10 10 9 8 8 7 7 6 6 6
10 5 3 4 5 4 10 17 16 18 3 15 7 9 2 2 4 13 17 19 19 20 20 19 18 18 16 16 14 14 13 12 11 10 10 9 9 8 7 7 6 5 5 4
10 7 10 14 2 8 9 16 20 16 10 20 21 19 5 7 8 12 15 17 19 20 21 19 17 17 16 15 15 15 14 13 11 10 10 9 8 7 6 6 5 4 4 4
12 10 13 22 19 2 2 6 18 25 31 18 27 23 18 13 13 14 13 14 18 20 21 21 19 17 17 16 15 13 12 11 11 10 9 9 8 7 6 5 4 3 4 4
3 4 8 14 16 13 15 13 19 21 26 27 28 29 6 7 10 10 11 12 15 19 20 19 17 17 17 18 16 14 13 12 11 10 9 9 8 7 6 4 3 3 3 3
10 6 5 7 3 2 8 23 24 27 25 23 24 29 6 5 4 7 10 14 19 18 19 19 17 17 17 17 16 15 13 11 10 10 9 9 8 6 6 5 3 3 2 2
7 7 4 2 6 7 6 1 10 23 24 18 18 3 4 2 4 4 9 16 17 16 18 19 19 19 18 17 16 14 14 12 10 10 9 8 8 7 7 5 3 2 1 2
3 5 3 4 7 8 11 7 7 10 13 14 9 4 4 3 1 9 8 8 12 16 14 15 15 16 16 16 15 15 13 12 11 11 10 9 8 7 7 4 3 2 1 3
2 0 4 4 5 9 4 3 3 2 9 9 16 13 13 10 8 10 6 5 5 6 9 13 15 15 17 16 16 15 14 12 12 11 11 10 8 7 6 5 4 2 2 4
5 3 12 8 8 5 2 7 3 5 4 2 10 7 12 8 4 3 7 6 7 8 11 13 15 15 15 15 16 14 13 12 11 11 10 9 8 6 6 5 4 3 3 4
10 10 7 6 6 9 6 5 8 1 2 2 2 4 6 4 5 5 7 10 10 12 14 13 13 12 12 14 15 14 13 10 11 11 10 9 7 6 5 5 4 4 4 5
5 4 4 7 2 1 9 1 1 1 2 3 3 4 7 7 6 7 7 8 8 9 9 8 11 12 9 10 11 13 11 13 12 11 9 8 7 6 5 5 5 5 5 5
4 3 2 1 2 2 9 3 4 4 2 1 1 4 6 7 7 5 5 6 7 7 9 7 11 11 10 9 8 7 12 12 11 10 9 7 7 7 6 5 5 5 5 5
2 8 6 1 3 3 6 8 8 6 3 1 2 4 8 7 5 5 5 6 6 8 7 8 10 10 10 10 9 9 12 12 10 9 8 8 7 7 6 7 5 6 5 5
6 6 6 3 7 2 6 13 9 7 8 6 5 3 2 5 7 5 5 5 6 8 8 7 7 6 8 11 10 10 11 12 11 9 7 7 6 6 6 5 5 12 12 11
Wind_Direction
199 211 219 227 227 253 277 283 268 267 144 271 244 248 241 192 210 216 213 208 201 191 149 122 92 75 76 78 86 89 96 93 97 94 94 88 90 84 72 64 65 61 58 60
182 227 237 248 271 236 245 256 259 261 226 246 269 263 256 208 217 223 221 210 195 175 168 144 117 99 88 92 95 94 95 92 82 94 101 92 98 86 82 72 65 64 65 59
225 228 219 213 221 222 235 243 253 259 273 240 273 265 252 240 215 216 230 213 189 184 165 153 136 120 112 100 102 102 101 93 90 93 99 101 106 98 89 77 71 62 62 58
252 256 198 207 230 216 247 234 250 262 253 260 159 287 288 233 204 210 206 197 186 166 159 149 143 127 108 94 93 92 93 97 108 124 114 102 98 97 89 87 82 69 62 59
215 184 199 224 228 207 260 128 224 242 254 274 257 266 300 41 213 206 201 194 182 169 161 152 141 130 119 120 113 108 106 101 99 104 108 105 102 99 100 94 89 79 66 60
269 13 224 222 190 212 131 112 113 223 268 258 242 233 265 207 235 195 189 187 175 169 159 147 139 135 126 123 117 112 111 103 100 99 100 105 108 111 108 99 91 82 69 54
234 229 201 189 154 145 195 175 232 234 206 254 349 221 253 178 199 196 184 181 173 167 162 156 153 147 143 138 134 128 122 116 111 106 101 94 95 95 91 91 86 87 74 60
213 223 202 196 219 195 201 204 189 235 216 258 38 236 241 3 130 178 176 177 171 170 167 166 162 153 147 143 140 132 124 116 112 108 104 100 94 89 86 81 80 74 70 60
214 243 266 110 222 218 185 226 244 5 139 274 224 241 210 163 169 181 171 173 176 176 173 171 165 161 154 150 146 139 131 124 118 113 109 108 107 102 102 97 87 82 71 57
240 260 162 137 172 248 217 153 171 205 226 234 250 243 238 203 192 181 180 184 178 177 176 175 172 167 162 156 147 142 139 132 129 125 121 114 109 106 100 93 86 75 67 51
209 228 124 158 200 189 177 210 222 230 223 252 276 242 170 205 188 191 187 184 181 180 178 175 174 172 166 161 156 151 144 141 139 133 127 124 118 111 101 93 84 69 62 42
216 313 241 218 137 264 232 214 207 208 189 239 288 262 93 41 182 184 187 184 184 184 178 175 175 173 170 167 163 161 154 153 151 146 141 128 125 118 108 95 84 66 61 51
160 204 201 233 194 182 219 220 226 233 299 238 215 255 56 115 191 186 187 183 186 182 181 178 178 177 176 174 170 166 164 161 153 149 138 133 131 123 113 105 88 75 62 57
144 190 215 235 65 138 202 214 214 219 227 244 234 257 190 212 203 186 195 185 184 183 182 184 182 179 178 174 171 170 169 159 157 149 144 141 135 130 116 98 90 81 59 45
184 214 214 249 271 357 308 250 219 216 228 222 250 246 251 206 204 202 184 179 184 186 188 189 185 180 176 175 174 168 160 154 156 152 147 142 131 118 114 108 102 91 65 38
223 237 211 253 254 256 258 244 240 241 237 245 249 258 339 22 101 149 179 172 192 195 192 191 183 178 183 177 173 163 160 159 156 152 145 137 131 127 125 130 144 91 60 31
178 188 185 245 192 66 263 240 236 237 233 236 239 248 127 102 163 185 169 182 200 197 189 188 187 185 182 177 165 161 158 146 146 142 139 137 132 138 156 165 125 92 69 356
172 201 199 218 122 224 256 352 278 239 237 232 241 104 119 115 282 259 201 187 190 192 186 190 187 186 179 166 159 152 145 147 148 143 141 139 138 169 168 149 128 120 81 323
120 200 192 198 198 319 276 203 188 182 245 223 214 230 158 155 30 246 204 204 209 202 198 187 177 169 165 160 153 142 142 148 153 157 151 148 170 169 156 140 151 149 180 285
131 37 216 138 239 243 352 72 87 102 267 191 201 206 183 144 213 238 159 153 136 141 144 148 159 160 160 155 145 144 152 160 168 159 153 161 166 161 151 159 163 157 230 256
169 185 217 221 236 266 185 138 132 144 279 357 186 194 156 186 219 87 125 135 137 137 138 144 154 160 157 149 143 149 158 175 155 143 146 159 161 152 150 155 172 188 229 257
176 173 194 211 228 251 122 93 181 194 359 100 86 148 167 117 127 142 150 149 146 143 148 150 149 149 150 150 151 157 168 149 137 141 156 155 150 158 157 157 186 203 218 237
226 224 187 207 197 122 199 66 208 176 158 182 175 176 172 162 176 157 151 146 145 141 134 135 140 135 143 156 160 157 156 145 145 152 154 151 151 167 170 183 196 214 208 238
225 158 233 138 146 215 208 222 233 200 220 194 239 156 169 159 143 132 125 128 128 138 146 143 142 151 154 164 165 150 145 146 149 154 153 153 165 178 187 200 204 215 220 228
92 151 156 241 239 249 245 245 249 184 170 173 119 167 182 150 164 150 140 150 161 157 148 157 165 169 171 163 164 145 151 147 155 152 158 170 181 186 192 210 210 215 224 220
185 159 184 208 170 178 193 215 218 170 203 184 167 154 148 147 156 140 174 172 162 164 153 167 179 169 165 167 167 160 154 159 157 162 170 180 181 183 201 210 220 229 238 241